Voltar ao catálogo

TITAN 3C TRANSTAGE DEB

AtivoHEO
NORAD 26777·DEBRIS·🇺🇸 United States

Lançado Dec 21, 1965 de Cape Canaveral Space Force Station

Loading…

Próximas Passagens (próximas 24 horas)

TLE

AtualizadoSource: Space-Track

Época: Sep 13, 2026, 00:03 UTC

1 26777U 65108AV  26256.00232066 -.00000005  00000-0  00000-0 0  9995
2 26777  26.6768 162.1743 6692328 131.5814 356.1940  2.56629022 48294

Acompanhe TITAN 3C TRANSTAGE DEB em tempo real com AllMySat

Download on the App Store